Regional Weather Roundup
Issued by NWS

Home | Current Version | Previous Version | Graphics & Text | Print | Product List | Glossary On
Versions: 1 2 3 4 5 6 7 8 9 10 11 12 13 14 15 16 17 18 19 20 21 22 23 24 25 26 27 28 29 30 31 32 33 34 35 36 37 38 39 40 41 42 43 44 45 46 47 48 49 50
000
ASUS43 KOAX 250002
RWRNE

WEATHER ROUNDUP FOR NEBRASKA
NATIONAL WEATHER SERVICE OMAHA NE
700 PM CDT WED MAY 24 2017

NOTES: SATELLITE DATA IS BEING USED TO AUGMENT CLOUD COVER ABOVE
       12000 FEET.
       "FAIR" INDICATES FEW OR NO CLOUDS BELOW 12,000 FEET WITH NO
       SIGNIFICANT WEATHER AND/OR OBSTRUCTIONS TO VISIBILITY.

  * THESE STATIONS DO NOT REPORT WEATHER SUCH AS RAIN...SNOW OR FOG.

NEZ001>004-019>022-054>056-250100-
NEBRASKA PANHANDLE

CITY           SKY/WX    TMP DP  RH WIND       PRES   REMARKS
SCOTTSBLUFF    SUNNY     79  49  34 SE15G22   29.44F
6HR MIN TEMP:  72; 6HR MAX TEMP:  83;

ALLIANCE       SUNNY     75  48  38 S18       29.47F
6HR MIN TEMP:  66; 6HR MAX TEMP:  77;

CHADRON        SUNNY     79  49  34 S22G29    29.37F
6HR MIN TEMP:  69; 6HR MAX TEMP:  81;

GORDON         FAIR      76  45  32 S15G21    29.46F
6HR MIN TEMP:  66; 6HR MAX TEMP:  78;

KIMBALL        MOSUNNY   79  39  23 SW16      29.55S
SIDNEY         MOSUNNY   76  47  35 S12       29.52F
6HR MIN TEMP:  65; 6HR MAX TEMP:  78;

$$

NEZ057>060-069>072-079>082-250100-
SOUTHWEST NEBRASKA

CITY           SKY/WX    TMP DP  RH WIND       PRES   REMARKS
NORTH PLATTE   SUNNY     70  44  39 S10G18    29.57F
6HR MIN TEMP:  61; 6HR MAX TEMP:  71;

IMPERIAL       SUNNY     73  44  35 SE17G28   29.55F
6HR MIN TEMP:  63; 6HR MAX TEMP:  75;

LEXINGTON      SUNNY     67  41  39 SE13      29.63F
MCCOOK         SUNNY     73  44  35 SE10      29.59F
6HR MIN TEMP:  62; 6HR MAX TEMP:  73;

$$

NEZ005>010-023>029-035>040-094-250100-
NORTH CENTRAL NEBRASKA

CITY           SKY/WX    TMP DP  RH WIND       PRES   REMARKS
VALENTINE      SUNNY     73  36  25 S22       29.52F
6HR MIN TEMP:  63; 6HR MAX TEMP:  73;

AINSWORTH      SUNNY     67  40  37 S17G23    29.57F
BROKEN BOW     SUNNY     66  42  41 S13       29.62F
6HR MIN TEMP:  58; 6HR MAX TEMP:  67;

ORD            SUNNY     66  40  38 S10       29.62F
6HR MIN TEMP:  59; 6HR MAX TEMP:  67;

$$

NEZ041-046>049-061>064-073>077-083>087-250100-
SOUTH CENTRAL NEBRASKA

CITY           SKY/WX    TMP DP  RH WIND       PRES   REMARKS
GRAND ISLAND   SUNNY     65  42  43 SW8       29.67F
6HR MIN TEMP:  59; 6HR MAX TEMP:  66;

AURORA         MOSUNNY   65  42  41 SW6       29.66F
HASTINGS       SUNNY     65  42  43 S7        29.67F
6HR MIN TEMP:  58; 6HR MAX TEMP:  66;

HEBRON         SUNNY     66  43  42 S5        29.68F
HOLDREGE       SUNNY     65  40  39 S13       29.64F
KEARNEY *      SUNNY     66  41  39 S13       29.65F
$$

NEZ011>018-030>034-042>045-250100-
NORTHEAST NEBRASKA

CITY           SKY/WX    TMP DP  RH WIND       PRES   REMARKS
NORFOLK        SUNNY     65  41  41 SE7       29.64F
6HR MIN TEMP:  59; 6HR MAX TEMP:  66;

ALBION         SUNNY     67  42  40 SW10      29.64F
BLAIR          SUNNY     65  42  42 NE3       29.67F
FREMONT        SUNNY     65  41  41 E5        29.67F
TEKAMAH        SUNNY     65  43  44 SW3       29.66F
6HR MIN TEMP:  62; 6HR MAX TEMP:  67;

$$

NEZ050>053-065>068-078-088>093-250100-
SOUTHEAST NEBRASKA

CITY           SKY/WX    TMP DP  RH WIND       PRES   REMARKS
LINCOLN        SUNNY     68  42  38 S3        29.67F
6HR MIN TEMP:  62; 6HR MAX TEMP:  70;

OMAHA EPPLEY   MOSUNNY   69  43  38 CALM      29.67F
6HR MIN TEMP:  63; 6HR MAX TEMP:  69;

BEATRICE       SUNNY     64  45  49 CALM      29.68F
FALLS CITY     SUNNY     66  45  46 NW6       29.67S
6HR MIN TEMP:  62; 6HR MAX TEMP:  69;

NEBRASKA CITY  SUNNY     66  36  32 N3        29.68F
$$

NEZ044-045-051>053-067-250100-
OMAHA AREA

CITY           SKY/WX    TMP DP  RH WIND       PRES   REMARKS
OMAHA EPPLEY   MOSUNNY   69  43  38 CALM      29.67F
6HR MIN TEMP:  63; 6HR MAX TEMP:  69;

BLAIR          SUNNY     65  42  42 NE3       29.67F
FREMONT        SUNNY     65  41  41 E5        29.67F
OFFUTT AFB     MOSUNNY   65  42  41 CALM      29.66F
WAHOO          FAIR      65  40  40 CALM      29.67F
$$




USA.gov is the U.S. government's official web portal to all federal, state and local government web resources and services.